User: anonymous   Login
Location: Brno
(49.2000°N, 16.6330°E)
Time: 02:53:00
(UTC+02:00)
Language:

BREEZE M DEB (TANK) - Orbit

View from above orbital plane
View from above orbital plane
View from above satellite
View from above satellite

Ground track
Ground track

The orbit data is extracted from the following two-line orbital elements,

1 28359U 04022B   15181.53342806  .00002770  00000-0  30776-3 0  9994
2 28359 049.5421 041.2491 4699810 339.5012 032.7410 06.15500536240919
Epoch (UTC): 30 June 2015 12:48:08
Eccentricity: 0.4699810
inclination: 49.5421°
perigee height: 288 km
apogee height: 12110 km
right ascension of ascending node: 41.2491°
argument of perigee: 339.5012°
revolutions per day: 6.15500536
mean anomaly at epoch: 32.7410°
orbit number at epoch: 24091

The dashed part of the orbit path shows where the satellite is in the earth's shadow,  

DLR